�������C�����ː����j�^�v���󋵏��
Date,Time,Cs137(Bq/L),Cs134(Bq/L),�S��(Bq/L)
2016/11/01,00:00,0.66,0.088,ND
2016/11/01,00:10,0.66,0.067,ND
2016/11/01,00:20,0.65,0.063,ND
2016/11/01,00:30,0.61,0.070,ND
2016/11/01,00:40,0.62,0.067,ND
2016/11/01,00:50,0.64,0.056,ND
2016/11/01,01:00,0.66,0.056,ND
2016/11/01,01:10,0.64,0.055,ND
2016/11/01,01:20,0.67,0.074,ND
2016/11/01,01:30,0.66,0.064,ND
2016/11/01,01:40,0.66,0.060,ND
2016/11/01,01:50,0.62,0.065,ND
2016/11/01,02:00,0.62,0.059,ND
2016/11/01,02:10,0.60,0.059,ND
2016/11/01,02:20,0.61,0.053,ND
2016/11/01,02:30,0.60,0.059,ND
2016/11/01,02:40,0.58,0.063,ND
2016/11/01,02:50,0.57,0.062,ND
2016/11/01,03:00,0.55,0.068,ND
2016/11/01,03:10,0.56,0.064,ND
2016/11/01,03:20,0.55,0.061,ND
2016/11/01,03:30,0.56,0.058,ND
2016/11/01,03:40,0.57,0.053,ND
2016/11/01,03:50,0.59,0.059,ND
2016/11/01,04:00,0.61,0.053,ND
2016/11/01,04:10,0.59,0.052,ND
2016/11/01,04:20,0.61,0.052,ND
2016/11/01,04:30,0.62,0.057,ND
2016/11/01,04:40,0.61,0.061,ND
2016/11/01,04:50,0.62,0.061,ND
2016/11/01,05:00,0.65,0.067,ND
2016/11/01,05:10,0.66,0.072,ND
2016/11/01,05:20,0.67,0.064,ND
2016/11/01,05:30,0.69,0.055,ND
2016/11/01,05:40,0.72,0.048,ND
2016/11/01,05:50,0.70,0.047,ND
2016/11/01,06:00,0.69,0.045,ND
2016/11/01,06:10,0.65,0.054,ND
2016/11/01,06:20,0.65,0.071,ND
2016/11/01,06:30,0.67,0.074,ND
2016/11/01,06:40,0.70,0.081,ND
2016/11/01,06:50,0.74,0.087,ND
2016/11/01,07:00,0.78,0.087,ND
2016/11/01,07:10,0.82,0.087,ND
2016/11/01,07:20,0.84,0.092,ND
2016/11/01,07:30,0.84,0.11,ND
2016/11/01,07:40,0.83,0.11,ND
2016/11/01,07:50,0.82,0.11,ND
2016/11/01,08:00,0.78,0.12,ND
2016/11/01,08:10,0.77,0.12,ND
2016/11/01,08:20,0.74,0.12,ND
2016/11/01,08:30,0.73,0.099,ND
2016/11/01,08:40,0.77,0.11,ND
2016/11/01,08:50,0.80,0.10,ND
2016/11/01,09:00,0.82,0.099,ND
2016/11/01,09:10,0.82,0.10,ND
2016/11/01,09:20,0.85,0.093,ND
2016/11/01,09:30,0.84,0.095,ND
2016/11/01,09:40,0.82,0.095,ND
2016/11/01,09:50,0.80,0.10,ND
2016/11/01,10:00,0.80,0.10,ND
2016/11/01,10:10,0.78,0.086,ND
2016/11/01,10:20,0.73,0.098,ND
2016/11/01,10:30,0.68,0.086,ND
2016/11/01,10:40,0.66,0.071,ND
2016/11/01,10:50,0.62,0.069,ND
2016/11/01,11:00,0.59,0.058,ND
2016/11/01,11:10,0.55,0.058,ND
2016/11/01,11:20,0.54,0.051,ND
2016/11/01,11:30,0.54,0.036,ND
2016/11/01,11:40,0.52,0.033,ND
2016/11/01,11:50,0.50,0.035,ND
2016/11/01,12:00,0.50,0.047,ND
2016/11/01,12:10,0.48,0.050,ND
2016/11/01,12:20,0.49,0.050,ND
2016/11/01,12:30,0.48,0.060,ND
2016/11/01,12:40,0.49,0.067,ND
2016/11/01,12:50,0.49,0.069,ND
2016/11/01,13:00,0.49,0.063,ND
2016/11/01,13:10,0.52,0.050,ND
2016/11/01,13:20,0.53,0.049,ND
2016/11/01,13:30,0.53,0.057,ND
2016/11/01,13:40,0.52,0.061,ND
2016/11/01,13:50,0.53,0.059,ND
2016/11/01,14:00,0.53,0.066,ND
2016/11/01,14:10,0.53,0.068,ND
2016/11/01,14:20,0.51,0.073,ND
2016/11/01,14:30,0.51,0.068,9.0
2016/11/01,14:40,0.52,0.068,9.9
2016/11/01,14:50,0.51,0.077,ND
2016/11/01,15:00,0.49,0.075,ND
2016/11/01,15:10,0.50,0.064,ND
2016/11/01,15:20,0.53,0.050,ND
2016/11/01,15:30,0.53,0.060,ND
2016/11/01,15:40,0.52,0.059,ND
2016/11/01,15:50,0.54,0.055,ND
2016/11/01,16:00,0.58,0.049,ND
2016/11/01,16:10,0.57,0.062,ND
2016/11/01,16:20,0.54,0.081,ND
2016/11/01,16:30,0.55,0.069,ND
2016/11/01,16:40,0.58,0.067,ND
2016/11/01,16:50,0.58,0.062,ND
2016/11/01,17:00,0.59,0.058,ND
2016/11/01,17:10,0.59,0.063,ND
2016/11/01,17:20,0.60,0.063,ND
2016/11/01,17:30,0.61,0.069,ND
2016/11/01,17:40,0.61,0.072,ND
2016/11/01,17:50,0.62,0.074,ND
2016/11/01,18:00,0.63,0.083,ND
2016/11/01,18:10,0.64,0.077,ND
2016/11/01,18:20,0.66,0.076,ND
2016/11/01,18:30,0.67,0.082,ND
2016/11/01,18:40,0.67,0.078,ND
2016/11/01,18:50,0.69,0.079,ND
2016/11/01,19:00,0.70,0.073,ND
2016/11/01,19:10,0.72,0.075,ND
2016/11/01,19:20,0.76,0.066,ND
2016/11/01,19:30,0.76,0.068,ND
2016/11/01,19:40,0.76,0.064,ND
2016/11/01,19:50,0.76,0.069,ND
2016/11/01,20:00,0.75,0.065,ND
2016/11/01,20:10,0.74,0.063,ND
2016/11/01,20:20,0.69,0.073,ND
2016/11/01,20:30,0.65,0.068,ND
2016/11/01,20:40,0.60,0.072,ND
2016/11/01,20:50,0.55,0.072,ND
2016/11/01,21:00,0.52,0.073,ND
2016/11/01,21:10,0.51,0.074,ND
2016/11/01,21:20,0.51,0.066,ND
2016/11/01,21:30,0.51,0.057,ND
2016/11/01,21:40,0.54,0.054,ND
2016/11/01,21:50,0.58,0.040,ND
2016/11/01,22:00,0.59,0.036,ND
2016/11/01,22:10,0.57,0.039,ND
2016/11/01,22:20,0.56,0.038,ND
2016/11/01,22:30,0.57,0.039,ND
2016/11/01,22:40,0.55,0.032,ND
2016/11/01,22:50,0.54,0.034,ND
2016/11/01,23:00,0.53,0.038,ND
2016/11/01,23:10,0.55,0.032,ND
2016/11/01,23:20,0.54,0.030,ND
2016/11/01,23:30,0.53,0.037,ND
2016/11/01,23:40,0.51,0.049,ND
2016/11/01,23:50,0.52,0.045,ND
